Regional Weather Roundup
Issued by NWS

Home | Current Version | Previous Version | Graphics & Text | Print | Product List | Glossary On
Versions: 1 2 3 4 5 6 7 8 9 10 11 12 13 14 15 16 17 18 19 20 21 22 23 24 25 26 27 28 29 30 31 32 33 34 35 36 37 38 39 40 41 42 43 44 45 46 47 48 49 50
182
ASUS45 KSLC 242210
RWRUT

UTAH REGIONAL WEATHER ROUNDUP
NATIONAL WEATHER SERVICE SALT LAKE CITY UT
300 PM MST TUE JAN 24 2017

UTZ001>011-023>025-242300-

NORTHERN UTAH

CITY           SKY/WX    TMP DP  RH WIND       PRES   REMARKS
BRIGHAM CITY     N/A     30  23  74 S7        29.84R WCI  23
DUGWAY         PTSUNNY   33  16  48 NW5       29.85  WCI  29
HILL AFB       LGT SNOW  27  19  71 W7        29.82R WCI  20
LOGAN          LGT SNOW N/A N/A N/A NE6       29.81R
OGDEN          CLOUDY    28  20  71 W8        29.83R WCI  20
SALT LAKE CITY CLOUDY    31  25  78 CALM      29.84R
TOOELE VALLEY  CLOUDY    34  23  64 NE15      29.83S WCI  24
WENDOVER       CLOUDY    32  16  51 NW13      29.84R WCI  22
HEBER CITY     CLOUDY    27  21  80 N5        29.76R WCI  21
WEST JORDAN    CLOUDY    28  26  93 CALM      29.84R

$$

UTZ011>015-024>027-242300-

CENTRAL/NORTHEAST UTAH

CITY           SKY/WX    TMP DP  RH WIND       PRES   REMARKS
PROVO AIRPORT  PTSUNNY   30  23  75 NW8       29.84R WCI  22
MOAB/CANYONLAN SUNNY     39  21  48 W17       29.72R WCI  30
DELTA          CLOUDY    28  21  74 CALM      29.84R
PRICE          SUNNY     30  10  43 NW13      29.71R WCI  20
ROOSEVELT      SUNNY     30  23  74 SE6       29.74R WCI  24
VERNAL         LGT SNOW  25  23  92 NE7       29.73R VSB 3/4 WCI  17

$$

UTZ013>016-019>022-027-242300-

SOUTHERN UTAH

CITY           SKY/WX    TMP DP  RH WIND       PRES   REMARKS
BRYCE CANYON   MOSUNNY   23   8  52 NW16      29.72R WCI  10
CEDAR CITY     SUNNY     30  16  56 CALM      29.79R
MILFORD        PTSUNNY   32  21  64 CALM      29.81R
ST GEORGE      MOCLDY    43  25  49 SW14      29.90R
HANKSVILLE     MOSUNNY   39  12  33 NW12      29.76R WCI  32
BLANDING       MOSUNNY   30  24  78 CALM      29.78R

$$

REGIONAL REPORTS     COLORADO/ARIZONA

CITY           SKY/WX    TMP DP  RH WIND       PRES   REMARKS
CRAIG, CO      CLOUDY    22  11  62 NW8       29.71R WCI  12
GRAND JUNCTION PTSUNNY   36  21  54 W12       29.70R WCI  28
RIFLE, CO      CLOUDY    34  19  54 W12       29.67R WCI  25
MONTROSE, CO   CLOUDY    32  23  69 NW14      29.69R WCI  22
CORTEZ, CO     CLOUDY    30  28  92 S17       29.70S WCI  18
COLORADO CITY    N/A     34  28  80 W6        29.87R WCI  29
PAGE, AZ       PTSUNNY   39  17  41 W8        29.79R WCI  33
GRAND CANYON   NOT AVBL
KINGMAN, AZ    CLOUDY    42  27  55 N6        29.89S
FLAGSTAFF, AZ  PTSUNNY   26  18  71 W9G20     29.79F WCI  17

$$

REGIONAL REPORTS    NEVADA/IDAHO/WYOMING

CITY           SKY/WX    TMP DP  RH WIND       PRES   REMARKS
LAS VEGAS, NV  MOSUNNY   51  17  26 VRB5      29.90S
ELY, NY        CLOUDY    25  12  58 N3        29.81R
ELKO, NV       CLOUDY    27  19  72 W13       29.87R WCI  16
POCATELLO, ID  LGT SNOW  25  22  88 W9        29.84R FOG     WCI  15
BURLEY, ID     FLURRIES  26  21  81 W8        29.84R WCI  18
FORT BRIDGER,  CLOUDY    22  20  90 W17       29.73R WCI   8
EVANSTON, WY   CLOUDY    19  14  81 SW18      29.70R WCI   4
ROCK SPRINGS,  LGT SNOW  15  11  83 E6        29.71R FOG     WCI   6

$$




USA.gov is the U.S. government's official web portal to all federal, state and local government web resources and services.